NAVSTAR 43 (USA 132) 1 24876U 97035A 19051.81688200 .00000022 00000-0 00000+0 0 9993 2 24876 55.4682 203.0207 0034892 77.4343 282.9068 2.00564426158139 NAVSTAR 46 (USA 145) 1 25933U 99055A 19052.15960378 -.00000056 00000-0 00000+0 0 9997 2 25933 52.0554 50.8600 0163089 107.0314 67.8994 2.00561392141958 NAVSTAR 47 (USA 150) 1 26360U 00025A 19052.42806711 -.00000005 00000-0 00000+0 0 9995 2 26360 53.2871 129.2665 0042363 132.9459 282.1181 2.00562915137652 NAVSTAR 48 (USA 151) 1 26407U 00040A 19052.14355236 -.00000050 00000-0 00000+0 0 9994 2 26407 56.3335 321.1446 0195359 275.5243 269.0090 2.00560716136325 NAVSTAR 49 (USA 154) 1 26605U 00071A 19051.99592962 .00000020 00000-0 00000+0 0 9995 2 26605 55.0422 200.5075 0103882 248.7933 100.1855 2.00563311133925 NAVSTAR 50 (USA 156) 1 26690U 01004A 19052.81562500 -.00000007 00000-0 00000+0 0 9999 2 26690 52.8270 132.0783 0108268 149.5146 69.2760 1.93731915132317 NAVSTAR 51 (USA 166) 1 27663U 03005A 19052.04482892 -.00000049 00000-0 00000+0 0 9999 2 27663 56.3950 320.9182 0104849 30.0460 200.4912 2.00551576117691 NAVSTAR 52 (USA 168) 1 27704U 03010A 19052.41485979 -.00000030 00000-0 00000+0 0 9991 2 27704 54.2764 72.7921 0249563 275.4924 191.6629 2.00549779116498 NAVSTAR 53 (USA 175) 1 28129U 03058A 19051.51100575 -.00000003 00000-0 00000+0 0 9991 2 28129 53.0990 132.1122 0074221 278.6590 80.5503 2.00574683111172 NAVSTAR 54 (USA 177) 1 28190U 04009A 19051.77937869 -.00000072 00000-0 00000+0 0 9994 2 28190 56.2479 21.7151 0091746 76.7633 116.3336 2.00569825109359 NAVSTAR 55 (USA 178) 1 28361U 04023A 19051.66412608 .00000014 00000-0 00000+0 0 9992 2 28361 54.0524 195.0085 0130016 229.0960 153.1938 2.00567328107448 NAVSTAR 56 (USA 180) 1 28474U 04045A 19052.29391979 -.00000029 00000-0 00000+0 0 9995 2 28474 54.6374 72.5059 0190931 258.6341 222.5180 2.00565584104815 NAVSTAR 57 (USA 183) 1 28874U 05038A 19052.26014838 -.00000075 00000-0 00000+0 0 9996 2 28874 56.3768 19.0355 0132082 261.4549 302.4352 2.00561192 98211 NAVSTAR 58 (USA 190) 1 29486U 06042A 19050.63152253 .00000043 00000-0 00000+0 0 9999 2 29486 55.0529 257.7500 0092666 357.7132 27.5775 2.00575997 90905 NAVSTAR 59 (USA 192) 1 29601U 06052A 19051.53614492 -.00000044 00000-0 00000+0 0 9999 2 29601 56.3740 319.8545 0072785 58.4666 302.2890 2.00561239 89834 NAVSTAR 60 (USA 196) 1 32260U 07047A 19051.84840875 .00000011 00000-0 00000+0 0 9992 2 32260 53.1755 190.7966 0110760 42.9378 317.8711 2.00566643 83211 NAVSTAR 61 (USA 199) 1 32384U 07062A 19051.38042036 -.00000072 00000-0 00000+0 0 9996 2 32384 56.4577 19.6997 0004810 79.5579 80.4035 2.00577070 81942 NAVSTAR 62 (USA 201) 1 32711U 08012A 19050.26026837 .00000048 00000-0 00000+0 0 9995 2 32711 54.7909 256.9826 0123648 218.8667 140.2784 2.00570852 80104 NAVSTAR 64 (USA 206) 1 35752U 09043A 19052.20918582 -.00000001 00000-0 00000+0 0 9991 2 35752 54.3885 134.6049 0054024 39.0439 314.0819 2.00568102 69721 NAVSTAR 65 (USA 213) 1 36585U 10022A 19051.41356272 -.00000040 00000-0 00000+0 0 9992 2 36585 55.6565 316.2427 0080518 48.2156 195.9660 2.00554527 63964 NAVSTAR 66 (USA 232) 1 37753U 11036A 19051.46198927 -.00000015 00000-0 00000+0 0 9994 2 37753 55.8336 76.3637 0082594 37.8348 325.7027 2.00565452 55645 NAVSTAR 67 (USA 239) 1 38833U 12053A 19051.93998754 .00000028 00000-0 00000+0 0 9995 2 38833 53.8240 253.2289 0080669 32.7693 327.7509 2.00556798 46723 NAVSTAR 68 (USA 242) 1 39166U 13023A 19052.30159161 -.00000077 00000-0 00000+0 0 9991 2 39166 56.0637 15.8484 0066289 22.9678 337.3140 2.00568332 42263 NAVSTAR 69 (USA 248) 1 39533U 14008A 19052.29786648 .00000022 00000-0 00000+0 0 9996 2 39533 53.9588 258.5962 0037109 190.2671 169.6857 2.00568981 36624 NAVSTAR 70 (USA 251) 1 39741U 14026A 19051.08892761 -.00000012 00000-0 00000+0 0 9997 2 39741 55.8144 75.9037 0016905 290.5079 69.3740 2.00549281 34880 NAVSTAR 71 (USA 256) 1 40105U 14045A 19051.67298001 .00000015 00000-0 00000+0 0 9998 2 40105 54.5788 195.2482 0012204 100.1450 259.9432 2.00556457 33341 NAVSTAR 72 (USA 258) 1 40294U 14068A 19051.04306248 -.00000001 00000-0 00000+0 0 9992 2 40294 55.1401 136.1142 0017737 29.7998 330.3424 2.00574625 31558 NAVSTAR 73 (USA 260) 1 40534U 15013A 19051.68763601 -.00000041 00000-0 00000+0 0 9994 2 40534 54.5879 314.6955 0036313 2.6128 357.4600 2.00577073 28639 NAVSTAR 74 (USA 262) 1 40730U 15033A 19051.83929647 -.00000077 00000-0 00000+0 0 9994 2 40730 55.5902 15.2594 0043692 337.7459 22.0528 2.00560811 26392 NAVSTAR 75 (USA 265) 1 41019U 15062A 19051.39256946 .00000000 00000-0 00000+0 0 9998 2 41019 55.1426 135.9119 0044358 205.3339 154.4911 2.00564476 24205 NAVSTAR 76 (USA 266) 1 41328U 16007A 19050.98857359 .00000014 00000-0 00000+0 0 9995 2 41328 54.8246 195.6334 0027303 214.4830 145.2901 2.00553510 22251